Concordia, KS

11:20 AM CDT on April 28, 2017 (GMT -0500)
Blosser Municipal

Weather History for KCNK - December, 2011

Change the Weather History Date:

Saturday, December 24, 2011

  Actual Average Record
Temperature  
Mean Temperature 36 °F 29 °F  
Max Temperature 51 °F 38 °F 68 °F (1889)
Min Temperature 21 °F 19 °F -13 °F (1983)
Degree Days  
Heating Degree Days 29 36  
Month to date heating degree days 795 827  
Since 1 July heating degree days 1806 1919  
Cooling Degree Days 0 0  
Month to date cooling degree days 0 0  
Year to date cooling degree days 1515 1349  
Moisture  
Dew Point 22 °F    
Average Humidity 59    
Maximum Humidity 88    
Minimum Humidity 29    
Precipitation  
Precipitation 0.00 in 0.03 in 0.64 in (1973)
Month to date precipitation 1.86 0.71  
Year to date precipitation 31.03 27.75  
Snow  
Snow 0.00 in 0.10 in 2.80 in (1948)
Month to date snowfall 0.1 2.8  
Year to date snowfall 23.2 19.2  
Since 1 July snowfall 0.1 5.5  
Snow Depth 0.00 in    
Sea Level Pressure  
Sea Level Pressure 30.37 in    
Wind  
Wind Speed 9 mph (WSW)    
Max Wind Speed 14 mph    
Max Gust Speed 17 mph    
Visibility 10 miles    
Events      
T = Trace of Precipitation, MM = Missing Value Source: NWS Daily Summary

Daily Weather History Graph

Daily Weather History Graph

Search for Another Location

Airport or City:

Trip Planner

Search our weather history database for the weather conditions in past years. The results will help you decide how hot, cold, wet, or windy it might be!

Date:

Astronomy

Dec. 24, 2011 Rise Set
Actual Time 7:48 AM CST 5:11 PM CST
Civil Twilight 7:18 AM CST 5:41 PM CST
Nautical Twilight 6:44 AM CST 6:15 PM CST
Astronomical Twilight 6:11 AM CST 6:48 PM CST
Moon 7:38 AM CST (12/24) 5:26 PM CST (12/24)
Length of Visible Light 10h 23m
Length of Day
9h 22m
New Moon, 0% of the Moon is Illuminated
Dec 24
New Moon
Dec 24
New
Jan 1
First Quarter
Jan 9
Full
Jan 16
Last Quarter

Hourly Weather History & Observations

Time (CST) Temp. Windchill Dew Point Humidity Pressure Visibility Wind Dir Wind Speed Gust Speed Precip Events Conditions
12:55 AM 26.1 °F 17.6 °F 19.0 °F 75% 30.34 in 10.0 mi West 8.1 mph - N/A   Clear
1:55 AM 24.8 °F 16.1 °F 19.4 °F 80% 30.29 in 10.0 mi West 8.1 mph - N/A   Clear
2:55 AM 24.1 °F 14.4 °F 19.0 °F 81% 30.35 in 10.0 mi West 9.2 mph - N/A   Clear
3:55 AM 23.0 °F 12.4 °F 19.0 °F 85% 30.34 in 10.0 mi WSW 10.4 mph - N/A   Clear
4:55 AM 23.0 °F 13.1 °F 19.0 °F 85% 30.36 in 10.0 mi West 9.2 mph - N/A   Clear
5:55 AM 24.1 °F 13.7 °F 19.0 °F 81% 30.35 in 10.0 mi West 10.4 mph - N/A   Clear
6:55 AM 23.0 °F 13.1 °F 19.0 °F 85% 30.37 in 10.0 mi WSW 9.2 mph - N/A   Clear
7:55 AM 21.9 °F 11.0 °F 18.0 °F 85% 30.40 in 10.0 mi WSW 10.4 mph - N/A   Clear
8:55 AM 26.1 °F 18.4 °F 19.9 °F 78% 30.39 in 10.0 mi SW 6.9 mph - N/A   Clear
9:55 AM 30.0 °F 23.2 °F 21.9 °F 72% 30.43 in 10.0 mi WSW 6.9 mph - N/A   Clear
10:55 AM 39.9 °F 35.1 °F 25.0 °F 55% 30.40 in 10.0 mi WSW 6.9 mph - N/A   Clear
11:55 AM 39.0 °F 32.8 °F 25.0 °F 57% 30.40 in 10.0 mi NW 9.2 mph - N/A   Clear
12:55 PM 44.1 °F 40.1 °F 24.1 °F 45% 30.37 in 10.0 mi West 6.9 mph - N/A   Clear
1:55 PM 50.0 °F - 19.9 °F 31% 30.32 in 10.0 mi West 8.1 mph - N/A   Clear
2:55 PM 50.0 °F - 23.0 °F 35% 30.29 in 10.0 mi WNW 6.9 mph - N/A   Clear
3:55 PM 50.0 °F - 24.1 °F 36% 30.33 in 10.0 mi WNW 8.1 mph - N/A   Clear
4:55 PM 44.1 °F 40.8 °F 23.0 °F 43% 30.35 in 10.0 mi West 5.8 mph - N/A   Clear
5:55 PM 34.0 °F 27.2 °F 26.1 °F 73% 30.37 in 10.0 mi SW 8.1 mph - N/A   Clear
6:55 PM 32.0 °F 24.2 °F 25.0 °F 75% 30.38 in 10.0 mi SSW 9.2 mph - N/A   Clear
7:55 PM 30.0 °F 20.0 °F 24.1 °F 79% 30.39 in 10.0 mi SW 12.7 mph - N/A   Clear
8:55 PM 32.0 °F 24.2 °F 24.1 °F 73% 30.39 in 10.0 mi WSW 9.2 mph - N/A   Clear
9:55 PM 30.9 °F 24.3 °F 23.0 °F 72% 30.39 in 10.0 mi WSW 6.9 mph - N/A   Clear
10:55 PM 30.9 °F 22.8 °F 23.0 °F 72% 30.38 in 10.0 mi WSW 9.2 mph - N/A   Clear
11:55 PM 32.0 °F 24.2 °F 21.9 °F 66% 30.39 in 10.0 mi West 9.2 mph - N/A   Clear